When you browse on this site, cookies collect data to enhance your experience and personalize the content and advertising you see.
Visit our Privacy Policy to learn more. By continuing to use the site, you agree to this use of cookies and data.
  • In Österreich
  • Länderverzeichnis
  • Für 7 Tage
  • Wassertemperatur
  • Satellitenkarten
  • Wetterkarte
  • News
  • Widgets
  • user-avatar
    Anmelden

    Stündliche Wetter Annaba

    Heute, 21 Januar, Montag

    Zeit Temperatur Niederschläge Wind Luftdruck Luftfeuchtigkeit
    00:00 +10°C° 0.7 mm 2 m/S 754 mmHg 84%
    01:00 +10°C° 0 mm 3 m/S 754 mmHg 86%
    02:00 +10°C° 0.6 mm 2 m/S 754 mmHg 86%
    03:00 +10°C° 0.6 mm 2 m/S 754 mmHg 86%
    04:00 +10°C° 0.6 mm 2 m/S 753 mmHg 85%
    05:00 +10°C° 0 mm 2 m/S 753 mmHg 85%
    06:00 +9°C° 0 mm 3 m/S 753 mmHg 84%
    07:00 +9°C° 0 mm 3 m/S 753 mmHg 82%
    08:00 +10°C° 0 mm 3 m/S 753 mmHg 79%
    09:00 +12°C° 0 mm 3 m/S 754 mmHg 75%
    10:00 +13°C° 0 mm 3 m/S 754 mmHg 71%
    11:00 +14°C° 0.1 mm 4 m/S 754 mmHg 70%
    12:00 +14°C° 0.1 mm 5 m/S 754 mmHg 68%
    13:00 +15°C° 0.1 mm 7 m/S 754 mmHg 67%
    14:00 +14°C° 0.6 mm 7 m/S 754 mmHg 73%
    15:00 +12°C° 0.6 mm 7 m/S 755 mmHg 79%
    16:00 +11°C° 0.6 mm 8 m/S 755 mmHg 85%
    17:00 +10°C° 0.5 mm 7 m/S 755 mmHg 85%
    18:00 +10°C° 0.5 mm 6 m/S 756 mmHg 85%
    19:00 +9°C° 0.5 mm 6 m/S 757 mmHg 86%
    20:00 +9°C° 0.6 mm 5 m/S 757 mmHg 86%
    21:00 +9°C° 0.6 mm 5 m/S 758 mmHg 87%
    22:00 +8°C° 0.6 mm 5 m/S 758 mmHg 87%
    23:00 +8°C° 0.5 mm 5 m/S 758 mmHg 88%

    Morgen, 22 Januar, Dienstag

    Zeit Temperatur Niederschläge Wind Luftdruck Luftfeuchtigkeit
    00:00 +8°C° 0.5 mm 5 m/S 758 mmHg 88%
    01:00 +7°C° 0.5 mm 5 m/S 758 mmHg 88%
    02:00 +7°C° 0.2 mm 5 m/S 758 mmHg 89%
    03:00 +7°C° 0.2 mm 5 m/S 758 mmHg 89%
    04:00 +7°C° 0.2 mm 5 m/S 758 mmHg 89%
    05:00 +7°C° 0.2 mm 5 m/S 758 mmHg 88%
    06:00 +6°C° 0.2 mm 5 m/S 758 mmHg 88%
    07:00 +6°C° 0.2 mm 5 m/S 758 mmHg 87%
    08:00 +7°C° 0.2 mm 5 m/S 759 mmHg 83%
    09:00 +8°C° 0.2 mm 5 m/S 759 mmHg 80%
    10:00 +9°C° 0.2 mm 5 m/S 759 mmHg 76%
    11:00 +10°C° 0.3 mm 5 m/S 759 mmHg 73%
    12:00 +10°C° 0.3 mm 5 m/S 758 mmHg 70%
    13:00 +12°C° 0.3 mm 5 m/S 758 mmHg 66%
    14:00 +12°C° 0.2 mm 4 m/S 757 mmHg 67%
    15:00 +12°C° 0.2 mm 4 m/S 757 mmHg 67%
    16:00 +11°C° 0.2 mm 3 m/S 756 mmHg 67%
    17:00 +10°C° 0.2 mm 3 m/S 756 mmHg 72%
    18:00 +9°C° 0.2 mm 3 m/S 756 mmHg 77%
    19:00 +8°C° 0.2 mm 2 m/S 756 mmHg 81%
    20:00 +7°C° 0.2 mm 3 m/S 756 mmHg 82%
    21:00 +7°C° 0.2 mm 3 m/S 756 mmHg 83%
    22:00 +6°C° 0.2 mm 4 m/S 756 mmHg 84%
    23:00 +6°C° 0 mm 4 m/S 755 mmHg 83%

    übermorgen, 23 Januar, Mittwoch

    Zeit Temperatur Niederschläge Wind Luftdruck Luftfeuchtigkeit
    00:00 +6°C° 0 mm 4 m/S 755 mmHg 81%
    01:00 +6°C° 0 mm 4 m/S 754 mmHg 80%
    02:00 +6°C° 0 mm 4 m/S 754 mmHg 78%
    03:00 +6°C° 0 mm 4 m/S 753 mmHg 77%
    04:00 +5°C° 0 mm 4 m/S 752 mmHg 76%
    05:00 +5°C° 0 mm 4 m/S 752 mmHg 74%
    06:00 +5°C° 0 mm 4 m/S 751 mmHg 73%
    07:00 +5°C° 0 mm 3 m/S 751 mmHg 72%
    08:00 +6°C° 0.1 mm 4 m/S 751 mmHg 69%
    09:00 +8°C° 0.1 mm 4 m/S 751 mmHg 66%
    10:00 +10°C° 0.1 mm 4 m/S 750 mmHg 63%
    11:00 +9°C° 0.2 mm 6 m/S 750 mmHg 64%
    12:00 +10°C° 0.2 mm 8 m/S 749 mmHg 64%
    13:00 +11°C° 0.2 mm 10 m/S 749 mmHg 65%
    14:00 +11°C° 0.6 mm 10 m/S 748 mmHg 68%
    15:00 +9°C° 0.6 mm 10 m/S 748 mmHg 72%
    16:00 +9°C° 0.6 mm 10 m/S 747 mmHg 75%
    17:00 +9°C° 1.2 mm 8 m/S 746 mmHg 78%
    18:00 +8°C° 1.2 mm 6 m/S 746 mmHg 81%
    19:00 +7°C° 1.2 mm 5 m/S 745 mmHg 84%
    20:00 +8°C° 1.9 mm 6 m/S 745 mmHg 83%
    21:00 +8°C° 1.9 mm 6 m/S 744 mmHg 82%
    22:00 +8°C° 1.9 mm 7 m/S 744 mmHg 81%
    23:00 +6°C° 2 mm 8 m/S 744 mmHg 81%

    24 Januar, Donnerstag

    Zeit Temperatur Niederschläge Wind Luftdruck Luftfeuchtigkeit
    00:00 +6°C° 2 mm 8 m/S 744 mmHg 80%
    01:00 +5°C° 2 mm 9 m/S 744 mmHg 80%
    02:00 +5°C° 0.6 mm 10 m/S 744 mmHg 78%
    03:00 +4°C° 0.6 mm 11 m/S 743 mmHg 75%
    04:00 +3°C° 0.6 mm 12 m/S 743 mmHg 73%
    05:00 +3°C° 0.7 mm 12 m/S 743 mmHg 73%
    06:00 +3°C° 0.7 mm 13 m/S 742 mmHg 74%
    07:00 +3°C° 0.7 mm 13 m/S 741 mmHg 75%
    08:00 +2°C° 1.8 mm 15 m/S 740 mmHg 77%
    09:00 +2°C° 1.8 mm 17 m/S 739 mmHg 78%
    10:00 +2°C° 1.8 mm 19 m/S 738 mmHg 80%
    11:00 +5°C° 3.2 mm 18 m/S 738 mmHg 78%
    12:00 +6°C° 3.2 mm 17 m/S 738 mmHg 76%
    13:00 +7°C° 3.2 mm 16 m/S 738 mmHg 73%
    14:00 +8°C° 0.9 mm 14 m/S 740 mmHg 73%
    15:00 +8°C° 0.9 mm 13 m/S 741 mmHg 73%
    16:00 +8°C° 0.9 mm 11 m/S 743 mmHg 73%
    17:00 +8°C° 0.5 mm 10 m/S 744 mmHg 75%
    18:00 +7°C° 0.5 mm 9 m/S 746 mmHg 77%
    19:00 +8°C° 0.5 mm 7 m/S 747 mmHg 79%
    20:00 +9°C° 1.4 mm 8 m/S 748 mmHg 80%
    21:00 +8°C° 1.4 mm 9 m/S 749 mmHg 82%
    22:00 +9°C° 1.4 mm 10 m/S 750 mmHg 83%
    23:00 +9°C° 1.7 mm 10 m/S 750 mmHg 83%

    25 Januar, Freitag

    Zeit Temperatur Niederschläge Wind Luftdruck Luftfeuchtigkeit
    00:00 +9°C° 1.7 mm 10 m/S 751 mmHg 83%
    01:00 +8°C° 1.7 mm 11 m/S 752 mmHg 83%
    02:00 +8°C° 1.5 mm 10 m/S 752 mmHg 82%
    03:00 +7°C° 1.5 mm 10 m/S 753 mmHg 82%
    04:00 +7°C° 1.5 mm 9 m/S 754 mmHg 81%
    05:00 +7°C° 0.2 mm 9 m/S 754 mmHg 81%
    06:00 +6°C° 0.2 mm 9 m/S 754 mmHg 81%
    07:00 +6°C° 0.2 mm 9 m/S 755 mmHg 81%
    08:00 +7°C° 0.1 mm 9 m/S 755 mmHg 79%
    09:00 +7°C° 0.1 mm 9 m/S 756 mmHg 77%
    10:00 +8°C° 0.1 mm 9 m/S 756 mmHg 75%
    11:00 +8°C° 0.6 mm 9 m/S 756 mmHg 75%
    12:00 +8°C° 0.6 mm 9 m/S 757 mmHg 76%
    13:00 +10°C° 0.6 mm 9 m/S 757 mmHg 76%
    14:00 +8°C° 1.4 mm 9 m/S 757 mmHg 78%
    15:00 +8°C° 1.4 mm 9 m/S 757 mmHg 81%
    16:00 +9°C° 1.4 mm 8 m/S 757 mmHg 83%
    17:00 +7°C° 1.2 mm 8 m/S 757 mmHg 83%
    18:00 +8°C° 1.2 mm 7 m/S 758 mmHg 84%
    19:00 +8°C° 1.2 mm 7 m/S 758 mmHg 85%
    20:00 +6°C° 0.2 mm 7 m/S 759 mmHg 84%
    21:00 +7°C° 0.2 mm 6 m/S 759 mmHg 84%
    22:00 +7°C° 0.2 mm 6 m/S 759 mmHg 84%
    23:00 +7°C° 0 mm 6 m/S 759 mmHg 83%

    26 Januar, Samstag

    Zeit Temperatur Niederschläge Wind Luftdruck Luftfeuchtigkeit
    00:00 +8°C° 0 mm 6 m/S 759 mmHg 83%
    01:00 +8°C° 0 mm 5 m/S 759 mmHg 82%
    02:00 +9°C° 0.3 mm 6 m/S 759 mmHg 84%
    03:00 +9°C° 0.3 mm 6 m/S 759 mmHg 85%
    04:00 +10°C° 0.3 mm 6 m/S 759 mmHg 87%
    05:00 +10°C° 0.4 mm 6 m/S 759 mmHg 87%
    06:00 +10°C° 0.4 mm 6 m/S 759 mmHg 87%
    07:00 +10°C° 0.4 mm 6 m/S 759 mmHg 87%
    08:00 +10°C° 0.6 mm 7 m/S 759 mmHg 85%
    09:00 +11°C° 0.6 mm 7 m/S 760 mmHg 84%
    10:00 +11°C° 0.6 mm 8 m/S 760 mmHg 82%
    11:00 +12°C° 0.3 mm 8 m/S 760 mmHg 80%
    12:00 +13°C° 0.3 mm 9 m/S 760 mmHg 77%
    13:00 +13°C° 0.3 mm 9 m/S 760 mmHg 75%
    14:00 +13°C° 0.4 mm 8 m/S 760 mmHg 76%
    15:00 +13°C° 0.4 mm 8 m/S 760 mmHg 78%
    16:00 +14°C° 0.4 mm 7 m/S 760 mmHg 79%
    17:00 +13°C° 0.3 mm 6 m/S 760 mmHg 82%
    18:00 +11°C° 0.3 mm 6 m/S 760 mmHg 85%
    19:00 +10°C° 0.3 mm 5 m/S 760 mmHg 88%
    20:00 +11°C° 0.2 mm 4 m/S 760 mmHg 89%
    21:00 +11°C° 0.2 mm 4 m/S 760 mmHg 89%
    22:00 +11°C° 0.2 mm 3 m/S 760 mmHg 89%
    23:00 +10°C° 0.1 mm 3 m/S 760 mmHg 89%
    Mehr zeigen